{"data":{"norad_id":62505,"epoch":"2026-05-24T21:54:28.455840Z","epoch_age_seconds":82868,"freshness":"FRESH","line1":"1 62505U 25003U   26144.91282935  .00010432  00000+0  38799-3 0  9992","line2":"2 62505  43.0016 218.0750 0001582 268.8346  91.2325 15.27586045 78213","mean_motion":15.27586045,"eccentricity":0.0001582,"inclination_deg":43.0016,"raan_deg":218.075,"arg_perigee_deg":268.8346,"mean_anomaly_deg":91.2325,"bstar":0.00038799,"rev_number":7821,"period_min":94.266375679021,"perigee_km":481.94555841783,"apogee_km":484.11643197151,"semimajor_km":6861.1679951947,"source":"CELESTRAK","updated_at":"2026-05-25T13:38:19.700188Z"}}